Tracking 20060 objects as of 6-Dec-2019
HD Live streaming from Space Station
objects crossing your sky now

METEOR 2-17 DEB

Track METEOR 2-17 DEB now!
10-day predictions


NORAD ID: 29300
Int'l Code: 1988-005P
Perigee: 907.8 km
Apogee: 939.9 km
Inclination: 82.5 °
Period: 103.3 minutes
Semi major axis: 7294 km
RCS: 0.0063 m2 (small)
Launch date: January 30, 1988
Source: Commonwealth of Independent States (former USSR) (CIS)
Launch site: PLESETSK MISSILE AND SPACE COMPLEX (PKMTR)

Note: This is SATELLITE DEBRIS
aabbcc
Your satellite tracking list
Your tracking list is empty




NASA's NSSDC Master Catalog

Two Line Element Set (TLE):
1 29300U 88005P   19339.89949048 +.00000351 +00000-0 +25643-3 0  9993
2 29300 082.5405 039.5164 0022051 327.3735 032.6066 13.93410769685890
Source of the keplerian elements: AFSPC